TimeHST,TemperatureF,Dew PointF,Humidity,Sea Level PressureIn,VisibilityMPH,Wind Direction,Wind SpeedMPH,Gust SpeedMPH,PrecipitationIn,Events,Conditions,WindDirDegrees,DateUTC
12:53 AM,75.9,69.1,79,29.91,10.0,ENE,3.5,-,N/A,,Clear,60,2013-11-07 10:53:00
1:53 AM,75.9,68.0,76,29.90,10.0,East,3.5,-,N/A,,Clear,90,2013-11-07 11:53:00
2:53 AM,75.0,68.0,79,29.88,10.0,ENE,4.6,-,N/A,,Clear,70,2013-11-07 12:53:00
3:53 AM,75.0,66.0,73,29.88,10.0,NNW,4.6,-,N/A,,Clear,340,2013-11-07 13:53:00
4:53 AM,75.9,66.0,71,29.88,10.0,NNW,6.9,-,N/A,,Clear,340,2013-11-07 14:53:00
5:53 AM,75.0,64.9,71,29.90,10.0,NE,4.6,-,N/A,,Clear,40,2013-11-07 15:53:00
6:53 AM,75.0,66.9,76,29.94,10.0,NE,4.6,-,N/A,,Clear,40,2013-11-07 16:53:00
7:53 AM,78.1,68.0,71,29.95,10.0,NNE,5.8,-,N/A,,Clear,30,2013-11-07 17:53:00
8:53 AM,82.0,69.1,65,29.95,10.0,North,8.1,-,N/A,,Clear,360,2013-11-07 18:53:00
9:53 AM,82.9,69.1,63,29.95,10.0,NNW,9.2,-,N/A,,Clear,330,2013-11-07 19:53:00
10:53 AM,82.0,69.1,65,29.94,10.0,WNW,9.2,-,N/A,,Clear,300,2013-11-07 20:53:00
11:53 AM,82.9,70.0,65,29.93,10.0,West,8.1,-,N/A,,Clear,280,2013-11-07 21:53:00
12:53 PM,84.0,71.1,65,29.91,10.0,WSW,8.1,-,N/A,,Clear,250,2013-11-07 22:53:00
1:53 PM,82.9,71.1,67,29.88,10.0,SW,8.1,-,N/A,,Clear,230,2013-11-07 23:53:00
2:53 PM,82.0,70.0,67,29.88,10.0,SW,10.4,-,N/A,,Clear,230,2013-11-08 00:53:00
3:53 PM,82.0,71.1,69,29.88,10.0,SSW,6.9,-,N/A,,Clear,210,2013-11-08 01:53:00
4:53 PM,82.0,71.1,69,29.90,10.0,SSW,6.9,-,N/A,,Partly Cloudy,210,2013-11-08 02:53:00
5:53 PM,81.0,71.1,72,29.92,10.0,South,9.2,-,N/A,,Clear,180,2013-11-08 03:53:00
6:53 PM,80.1,71.1,74,29.93,10.0,SSE,6.9,-,N/A,,Clear,160,2013-11-08 04:53:00
7:53 PM,80.1,72.0,76,29.96,10.0,SSE,6.9,-,N/A,,Mostly Cloudy,160,2013-11-08 05:53:00
8:53 PM,80.1,72.0,76,29.96,10.0,SE,5.8,-,N/A,,Mostly Cloudy,140,2013-11-08 06:53:00
9:53 PM,80.1,71.1,74,29.97,10.0,ESE,3.5,-,N/A,,Overcast,120,2013-11-08 07:53:00
10:53 PM,80.1,71.1,74,29.97,10.0,WSW,3.5,-,N/A,,Partly Cloudy,240,2013-11-08 08:53:00
11:53 PM,80.1,66.9,64,29.95,10.0,NNW,4.6,-,N/A,,Partly Cloudy,330,2013-11-08 09:53:00